Weather History for Vicksburg, MS

Change the Weather History Date:

Saturday, May 18, 2013

  Actual Average Record
Temperature  
Mean Temperature 79 °F 73 °F  
Max Temperature 87 °F 85 °F 94 °F (1962)
Min Temperature 71 °F 62 °F 45 °F (2011)
Degree Days  
Heating Degree Days 0 0  
Month to date heating degree days 52 9  
Since 1 July heating degree days 2332 2350  
Cooling Degree Days 14 9  
Month to date cooling degree days 59 120  
Year to date cooling degree days 181 238  
Growing Degree Days 30 (Base 50)    
Moisture  
Dew Point 70 °F    
Average Humidity 75    
Maximum Humidity 93    
Minimum Humidity 57    
Precipitation  
Precipitation 0.00 in 0.17 in 2.94 in (1991)
Month to date precipitation 3.72 3.07  
Year to date precipitation 33.96 23.41  
Sea Level Pressure  
Sea Level Pressure 30.00 in    
Wind  
Wind Speed 6 mph (South)    
Max Wind Speed 14 mph    
Max Gust Speed 21 mph    
Visibility 9 miles    
Events      
T = Trace of Precipitation, MM = Missing Value Source: NWS Daily Summary

Daily Weather History Graph

Daily Weather History Graph

Search for Another Location

Airport:

Trip Planner

Search our weather history database for the weather conditions in past years. The results will help you decide how hot, cold, wet, or windy it might be!

Date:

Astronomy

May. 18, 2013 Rise Set
Actual Time 6:03 AM CDT 7:57 PM CDT
Civil Twilight 5:36 AM CDT 8:24 PM CDT
Nautical Twilight 5:03 AM CDT 8:57 PM CDT
Astronomical Twilight 4:28 AM CDT 9:32 PM CDT
Moon 1:23 PM CDT (5/18) 1:32 AM CDT (5/18)
Length of Visible Light 14h 47m
Length of Day
13h 53m
First Quarter, 55% of the Moon is Illuminated
May 18
First Quarter
May 24
Full
May 31
Last Quarter
Jun 8
New
Jun 16
First Quarter

Hourly Weather History & Observations

Time (CDT) Temp. Heat Index Dew Point Humidity Pressure Visibility Wind Dir Wind Speed Gust Speed Precip Events Conditions
12:53 AM 75.0 °F - 70.0 °F 84% 29.98 in 9.0 mi SSW 5.8 mph - N/A   Clear
1:53 AM 73.0 °F - 69.1 °F 87% 29.97 in 10.0 mi South 5.8 mph - N/A   Clear
2:53 AM 73.0 °F - 69.1 °F 87% 29.98 in 10.0 mi SSW 4.6 mph - N/A   Partly Cloudy
3:08 AM 73.4 °F - 69.8 °F 88% 29.96 in 9.0 mi SSW 4.6 mph - N/A   Mostly Cloudy
3:53 AM 73.9 °F - 69.1 °F 85% 29.99 in 10.0 mi SSW 6.9 mph - N/A   Overcast
4:53 AM 73.0 °F - 69.1 °F 87% 29.99 in 8.0 mi South 5.8 mph - N/A   Overcast
5:53 AM 72.0 °F - 69.1 °F 91% 30.01 in 7.0 mi South 4.6 mph - N/A   Overcast
6:53 AM 73.0 °F - 70.0 °F 90% 30.03 in 6.0 mi Calm Calm - N/A   Overcast
7:53 AM 73.9 °F - 70.0 °F 87% 30.05 in 6.0 mi SSE 3.5 mph - N/A   Overcast
8:53 AM 75.0 °F - 70.0 °F 84% 30.07 in 6.0 mi SE 4.6 mph - N/A   Haze
9:06 AM 75.2 °F - 71.6 °F 89% 30.05 in 7.0 mi SSE 5.8 mph - N/A   Overcast
9:53 AM 78.1 °F - 72.0 °F 81% 30.06 in 7.0 mi South 9.2 mph - N/A   Overcast
10:32 AM 78.8 °F - 71.6 °F 78% 30.04 in 8.0 mi SW 6.9 mph - N/A   Overcast
10:53 AM 80.1 °F 83.6 °F 71.1 °F 74% 30.06 in 8.0 mi Variable 5.8 mph - N/A   Mostly Cloudy
11:53 AM 82.0 °F 86.7 °F 72.0 °F 71% 30.05 in 9.0 mi South 8.1 mph - N/A   Overcast
12:18 PM 82.4 °F 87.2 °F 71.6 °F 70% 30.02 in 10.0 mi SW 8.1 mph - N/A   Mostly Cloudy
12:53 PM 84.0 °F 89.0 °F 71.1 °F 65% 30.03 in 10.0 mi South 9.2 mph - N/A   Mostly Cloudy
2:53 PM 86.0 °F 91.5 °F 71.1 °F 61% 30.00 in 10.0 mi SSW 9.2 mph - N/A   Clear
3:53 PM 87.1 °F 92.8 °F 71.1 °F 59% 29.99 in 10.0 mi South 10.4 mph - N/A   Clear
4:53 PM 87.1 °F 92.8 °F 71.1 °F 59% 29.98 in 10.0 mi South 9.2 mph 20.7 mph N/A   Partly Cloudy
5:53 PM 86.0 °F 90.7 °F 70.0 °F 59% 29.98 in 10.0 mi South 11.5 mph - N/A   Scattered Clouds
6:53 PM 84.0 °F 88.4 °F 70.0 °F 63% 29.97 in 10.0 mi South 6.9 mph - N/A   Clear
7:53 PM 80.1 °F 83.2 °F 70.0 °F 71% 29.98 in 10.0 mi South 5.8 mph - N/A   Clear
8:53 PM 75.0 °F - 70.0 °F 84% 29.96 in 10.0 mi SE 3.5 mph - N/A   Clear
9:53 PM 75.9 °F - 69.1 °F 79% 29.97 in 10.0 mi South 4.6 mph - N/A   Clear
10:53 PM 75.9 °F - 69.1 °F 79% 29.97 in 10.0 mi South 3.5 mph - N/A   Clear
11:53 PM 72.0 °F - 68.0 °F 87% 29.96 in 8.0 mi South 3.5 mph - N/A   Clear